Terug naar catalogus

COSMOS 1527

ActiefMilitairLEO
NORAD 14616·PAYLOAD·🇷🇺 Russia

Gelanceerd Jan 5, 1984 vanaf Plesetsk Cosmodrome

Loading…

Volgende Passages (komende 24 uur)

TLE

VersSource: Space-Track

Epoch: Sep 14, 2026, 09:47 UTC

1 14616U 84001F   26257.40769973  .00000008  00000-0  15755-3 0  9992
2 14616  74.0088 149.1178 0001718 356.3207 120.6635 12.51105839538533

Volg COSMOS 1527 in realtime met AllMySat

Download on the App Store